Weather History for KCOQ - October, 2012

Change the Weather History Date:

Monday, October 8, 2012

  Actual Average Record
Temperature  
Mean Temperature 40 °F -  
Max Temperature 48 °F 55 °F 78 °F (2010)
Min Temperature 33 °F 36 °F 26 °F (2000)
Degree Days  
Heating Degree Days 24    
Moisture  
Dew Point 26 °F    
Average Humidity 57    
Maximum Humidity 81    
Minimum Humidity 37    
Precipitation  
Precipitation 0.04 in - - ()
Sea Level Pressure  
Sea Level Pressure 29.66 in    
Wind  
Wind Speed 6 mph (South)    
Max Wind Speed 17 mph    
Max Gust Speed 23 mph    
Visibility 10 miles    
Events Rain    
Averages and records for this station are not official NWS values.
T = Trace of Precipitation, MM = Missing Value Source: NWS Daily Summary

Daily Weather History Graph

Daily Weather History Graph

Search for Another Location

Airport or City:

Trip Planner

Search our weather history database for the weather conditions in past years. The results will help you decide how hot, cold, wet, or windy it might be!

Date:

Astronomy

Oct. 08, 2012 Rise Set
Actual Time 7:18 AM CDT 6:35 PM CDT
Civil Twilight 6:48 AM CDT 7:05 PM CDT
Nautical Twilight 6:13 AM CDT 7:40 PM CDT
Astronomical Twilight 5:38 AM CDT 8:15 PM CDT
Moon No Moon Rise 2:47 PM CDT (10/8)
Length of Visible Light 12h 16m
Length of Day
11h 16m
Last Quarter, 46% of the Moon is Illuminated
Oct 8
Last Quarter
Oct 15
New
Oct 21
First Quarter
Oct 29
Full
Nov 6
Last Quarter

Hourly Weather History & Observations

Time (CDT) Temp. Windchill Dew Point Humidity Pressure Visibility Wind Dir Wind Speed Gust Speed Precip Events Conditions
12:16 AM 33.8 °F 29.6 °F 15.8 °F 48% 29.82 in 10.0 mi SSW 4.6 mph - N/A   Clear
12:36 AM 33.8 °F 29.6 °F 15.8 °F 48% 29.81 in 10.0 mi South 4.6 mph - N/A   Clear
12:55 AM 33.8 °F 29.6 °F 15.8 °F 48% 29.81 in 10.0 mi South 4.6 mph - N/A   Clear
1:16 AM 33.8 °F 29.6 °F 15.8 °F 48% 29.80 in 10.0 mi South 4.6 mph - N/A   Clear
1:36 AM 33.8 °F 29.6 °F 15.8 °F 48% 29.80 in 10.0 mi South 4.6 mph - N/A   Clear
1:55 AM 33.8 °F 27.7 °F 15.8 °F 48% 29.80 in 10.0 mi SSW 6.9 mph - N/A   Clear
2:16 AM 33.8 °F 28.6 °F 15.8 °F 48% 29.79 in 10.0 mi South 5.8 mph - N/A   Clear
2:36 AM 33.8 °F 28.6 °F 15.8 °F 48% 29.79 in 10.0 mi South 5.8 mph - N/A   Clear
2:56 AM 33.8 °F 29.6 °F 15.8 °F 48% 29.78 in 10.0 mi South 4.6 mph - N/A   Clear
3:16 AM 33.8 °F 27.7 °F 17.6 °F 52% 29.77 in 10.0 mi South 6.9 mph - N/A   Clear
3:36 AM 33.8 °F 27.7 °F 17.6 °F 52% 29.76 in 10.0 mi South 6.9 mph - N/A   Clear
3:56 AM 33.8 °F 27.7 °F 17.6 °F 52% 29.76 in 10.0 mi South 6.9 mph - N/A   Clear
4:16 AM 33.8 °F 27.7 °F 17.6 °F 52% 29.76 in 10.0 mi South 6.9 mph - N/A   Clear
4:36 AM 33.8 °F 27.7 °F 17.6 °F 52% 29.75 in 10.0 mi South 6.9 mph - N/A   Clear
4:56 AM 33.8 °F 27.7 °F 19.4 °F 56% 29.74 in 10.0 mi South 6.9 mph - N/A   Clear
5:16 AM 33.8 °F 27.7 °F 19.4 °F 56% 29.74 in 10.0 mi South 6.9 mph - N/A   Clear
5:36 AM 33.8 °F 27.0 °F 19.4 °F 56% 29.73 in 10.0 mi South 8.1 mph - N/A   Clear
5:55 AM 33.8 °F 28.6 °F 19.4 °F 56% 29.73 in 10.0 mi South 5.8 mph - N/A   Clear
6:16 AM 33.8 °F 27.7 °F 19.4 °F 56% 29.72 in 10.0 mi South 6.9 mph - N/A   Scattered Clouds
6:36 AM 33.8 °F 28.6 °F 19.4 °F 56% 29.72 in 10.0 mi South 5.8 mph - N/A   Mostly Cloudy
6:55 AM 33.8 °F 28.6 °F 19.4 °F 56% 29.71 in 10.0 mi South 5.8 mph - N/A   Mostly Cloudy
7:16 AM 33.8 °F 28.6 °F 21.2 °F 60% 29.71 in 10.0 mi South 5.8 mph - N/A   Mostly Cloudy
7:35 AM 33.8 °F 27.7 °F 21.2 °F 60% 29.71 in 10.0 mi South 6.9 mph - N/A   Overcast
7:56 AM 35.6 °F 30.7 °F 21.2 °F 56% 29.71 in 10.0 mi South 5.8 mph - N/A   Overcast
8:16 AM 35.6 °F 29.9 °F 21.2 °F 56% 29.71 in 10.0 mi South 6.9 mph - N/A   Overcast
8:35 AM 35.6 °F 29.9 °F 21.2 °F 56% 29.71 in 10.0 mi South 6.9 mph - N/A   Overcast
8:56 AM 35.6 °F 31.7 °F 21.2 °F 56% 29.70 in 10.0 mi South 4.6 mph - N/A   Mostly Cloudy
9:16 AM 37.4 °F 33.8 °F 21.2 °F 52% 29.70 in 10.0 mi South 4.6 mph - N/A   Scattered Clouds
9:36 AM 39.2 °F 37.0 °F 21.2 °F 49% 29.69 in 10.0 mi SSE 3.5 mph - N/A   Scattered Clouds
9:56 AM 39.2 °F 33.6 °F 21.2 °F 49% 29.69 in 10.0 mi South 8.1 mph - N/A   Scattered Clouds
10:16 AM 39.2 °F 34.2 °F 21.2 °F 49% 29.68 in 10.0 mi South 6.9 mph - N/A   Mostly Cloudy
10:36 AM 41.0 °F 38.0 °F 21.2 °F 45% 29.67 in 10.0 mi SSE 4.6 mph - N/A   Overcast
10:56 AM 41.0 °F 36.4 °F 21.2 °F 45% 29.66 in 10.0 mi SSE 6.9 mph - N/A   Mostly Cloudy
11:16 AM 42.8 °F 39.3 °F 21.2 °F 42% 29.65 in 10.0 mi SE 5.8 mph - N/A   Scattered Clouds
11:36 AM 42.8 °F 37.5 °F 21.2 °F 42% 29.65 in 10.0 mi South 9.2 mph - N/A   Mostly Cloudy
11:56 AM 44.6 °F 39.2 °F 21.2 °F 39% 29.64 in 10.0 mi SSE 10.4 mph - N/A   Mostly Cloudy
12:16 PM 44.6 °F 40.2 °F 21.2 °F 39% 29.63 in 10.0 mi South 8.1 mph - N/A   Mostly Cloudy
12:56 PM 46.4 °F - 24.8 °F 43% 29.60 in 10.0 mi Calm Calm - N/A   Mostly Cloudy
1:12 PM 46.4 °F 45.2 °F 24.8 °F 43% 29.59 in 10.0 mi SSE 3.5 mph - N/A   Overcast
1:36 PM 48.2 °F - 23.0 °F 37% 29.59 in 10.0 mi South 9.2 mph - N/A   Overcast
1:56 PM 48.2 °F - 24.8 °F 40% 29.58 in 10.0 mi SSE 10.4 mph 16.1 mph N/A Rain Rain
2:16 PM 46.4 °F 41.9 °F 26.6 °F 46% 29.56 in 10.0 mi SSE 9.2 mph - N/A   Light Drizzle
2:36 PM 48.2 °F - 28.4 °F 46% 29.57 in 10.0 mi South 8.1 mph - N/A   Drizzle
2:56 PM 46.4 °F 42.4 °F 32.0 °F 57% 29.55 in 10.0 mi SE 8.1 mph - N/A Rain Light Rain
3:16 PM 46.4 °F 45.2 °F 33.8 °F 62% 29.53 in 10.0 mi ESE 3.5 mph - N/A Rain Rain
3:35 PM 44.6 °F 41.4 °F 35.6 °F 71% 29.56 in 10.0 mi South 5.8 mph - N/A   Light Drizzle
3:55 PM 44.6 °F 41.4 °F 33.8 °F 66% 29.55 in 10.0 mi SSE 5.8 mph - N/A Rain Light Rain
4:16 PM 44.6 °F 37.2 °F 35.6 °F 71% 29.55 in 7.0 mi South 17.3 mph 23.0 mph 0.03 in Rain Rain
4:36 PM 44.6 °F 40.2 °F 37.4 °F 76% 29.54 in 10.0 mi SSW 8.1 mph - 0.04 in Rain Light Rain
4:56 PM 44.6 °F - 37.4 °F 76% 29.55 in 10.0 mi North - - N/A   Light Drizzle
5:16 PM 44.6 °F 43.1 °F 37.4 °F 76% 29.54 in 10.0 mi South 3.5 mph - N/A Rain Light Rain
5:36 PM 44.6 °F - 39.2 °F 81% 29.53 in 10.0 mi North - - N/A   Overcast
5:56 PM 44.6 °F 41.4 °F 39.2 °F 81% 29.55 in 10.0 mi SSW 5.8 mph - N/A   Overcast
6:15 PM 46.4 °F 42.9 °F 39.2 °F 76% 29.55 in 10.0 mi SW 6.9 mph - N/A   Overcast
6:35 PM 46.4 °F 42.4 °F 39.2 °F 76% 29.56 in 10.0 mi SW 8.1 mph - N/A   Overcast
6:56 PM 46.4 °F 42.4 °F 39.2 °F 76% 29.56 in 10.0 mi SW 8.1 mph - N/A   Overcast
7:36 PM 46.4 °F 42.9 °F 39.2 °F 76% 29.57 in 10.0 mi WSW 6.9 mph - N/A   Overcast
8:16 PM 48.2 °F - 39.2 °F 71% 29.59 in 10.0 mi WSW 11.5 mph 21.9 mph N/A   Overcast
8:36 PM 48.2 °F - 39.2 °F 71% 29.59 in 10.0 mi WSW 12.7 mph 20.7 mph N/A   Overcast
9:16 PM 46.4 °F 40.7 °F 35.6 °F 66% 29.61 in 10.0 mi West 12.7 mph 23.0 mph N/A   Mostly Cloudy
9:36 PM 44.6 °F 38.4 °F 35.6 °F 71% 29.62 in 10.0 mi West 12.7 mph 16.1 mph N/A   Mostly Cloudy
9:56 PM 44.6 °F 38.8 °F 33.8 °F 66% 29.62 in 10.0 mi West 11.5 mph 17.3 mph N/A   Scattered Clouds
10:16 PM 44.6 °F 39.7 °F 33.8 °F 66% 29.63 in 10.0 mi West 9.2 mph - N/A   Scattered Clouds
10:56 PM 44.6 °F 40.7 °F 33.8 °F 66% 29.63 in 10.0 mi West 6.9 mph - N/A   Clear
11:36 PM 42.8 °F 39.3 °F 35.6 °F 76% 29.63 in 10.0 mi WSW 5.8 mph - N/A   Clear
11:56 PM 42.8 °F 39.3 °F 35.6 °F 76% 29.63 in 10.0 mi SW 5.8 mph - N/A   Scattered Clouds